Time,TemperatureF,DewpointF,PressureIn,WindDirection,WindDirectionDegrees,WindSpeedMPH,WindSpeedGustMPH,Humidity,HourlyPrecipIn,Conditions,Clouds,dailyrainin,SoftwareType,DateUTC
2013-05-15 00:01:00,43.7,26.2,30.03,East,90,0.0,0.0,50,0.00,,,0.00,WUHU216HW,2013-05-15 04:01:00,
2013-05-15 00:02:00,43.7,26.2,30.03,East,90,0.0,0.0,50,0.00,,,0.00,WUHU216HW,2013-05-15 04:02:00,
2013-05-15 00:03:00,43.7,26.2,30.03,East,90,0.0,0.0,50,0.00,,,0.00,WUHU216HW,2013-05-15 04:03:00,
2013-05-15 00:08:00,43.7,26.2,30.04,ESE,113,0.0,0.0,50,0.00,,,0.00,WUHU216HW,2013-05-15 04:08:00,
2013-05-15 00:13:00,43.7,26.7,30.04,ESE,113,0.0,0.0,51,0.00,,,0.00,WUHU216HW,2013-05-15 04:13:00,
2013-05-15 00:18:00,43.5,27.0,30.04,ESE,113,0.0,0.0,52,0.00,,,0.00,WUHU216HW,2013-05-15 04:18:00,
2013-05-15 00:24:00,43.5,27.5,30.04,ESE,113,0.7,0.9,53,0.00,,,0.00,WUHU216HW,2013-05-15 04:24:00,
2013-05-15 00:29:00,43.5,28.0,30.04,ESE,113,0.4,0.9,54,0.00,,,0.00,WUHU216HW,2013-05-15 04:29:00,
2013-05-15 00:34:00,43.4,28.3,30.04,SE,135,0.0,0.7,55,0.00,,,0.00,WUHU216HW,2013-05-15 04:34:00,
2013-05-15 00:39:00,43.4,28.3,30.04,SE,135,0.0,0.4,55,0.00,,,0.00,WUHU216HW,2013-05-15 04:39:00,
2013-05-15 00:44:00,43.2,28.6,30.04,ESE,113,0.0,0.0,56,0.00,,,0.00,WUHU216HW,2013-05-15 04:44:00,
2013-05-15 00:49:00,43.2,28.6,30.03,ESE,113,0.0,0.0,56,0.00,,,0.00,WUHU216HW,2013-05-15 04:49:00,
2013-05-15 00:54:00,43.0,28.0,30.03,ESE,113,0.0,0.0,55,0.00,,,0.00,WUHU216HW,2013-05-15 04:54:00,
2013-05-15 00:59:00,43.0,28.0,30.03,ESE,113,0.0,0.0,55,0.00,,,0.00,WUHU216HW,2013-05-15 04:59:00,
2013-05-15 01:04:00,42.8,27.8,30.03,ESE,113,0.0,0.0,55,0.00,,,0.00,WUHU216HW,2013-05-15 05:04:00,
2013-05-15 01:09:00,42.8,27.3,30.03,ESE,113,0.0,0.0,54,0.00,,,0.00,WUHU216HW,2013-05-15 05:09:00,
2013-05-15 01:14:00,42.6,27.6,30.03,SE,135,0.4,0.7,55,0.00,,,0.00,WUHU216HW,2013-05-15 05:14:00,
2013-05-15 01:20:00,42.6,28.0,30.03,SE,135,0.2,0.7,56,0.00,,,0.00,WUHU216HW,2013-05-15 05:20:00,
2013-05-15 01:25:00,42.6,28.0,30.03,SE,135,0.0,0.4,56,0.00,,,0.00,WUHU216HW,2013-05-15 05:25:00,
2013-05-15 01:30:00,42.6,28.0,30.02,SE,135,0.0,0.2,56,0.00,,,0.00,WUHU216HW,2013-05-15 05:30:00,
2013-05-15 01:35:00,42.6,28.0,30.03,ESE,113,0.4,0.7,56,0.00,,,0.00,WUHU216HW,2013-05-15 05:35:00,
2013-05-15 01:40:00,42.6,28.5,30.02,SE,135,0.9,0.9,57,0.00,,,0.00,WUHU216HW,2013-05-15 05:40:00,
2013-05-15 01:45:00,42.8,28.7,30.02,ESE,113,0.4,0.9,57,0.00,,,0.00,WUHU216HW,2013-05-15 05:45:00,
2013-05-15 01:50:00,42.8,29.1,30.02,ESE,113,0.0,0.9,58,0.00,,,0.00,WUHU216HW,2013-05-15 05:50:00,
2013-05-15 01:55:00,42.8,29.1,30.02,ESE,113,0.0,0.7,58,0.00,,,0.00,WUHU216HW,2013-05-15 05:55:00,
2013-05-15 02:00:00,42.8,29.1,30.02,ESE,113,0.0,0.0,58,0.00,,,0.00,WUHU216HW,2013-05-15 06:00:00,
2013-05-15 02:05:00,43.0,29.3,30.01,ESE,113,0.0,0.0,58,0.00,,,0.00,WUHU216HW,2013-05-15 06:05:00,
2013-05-15 02:10:00,43.0,29.3,30.01,ESE,113,0.0,0.0,58,0.00,,,0.00,WUHU216HW,2013-05-15 06:10:00,
2013-05-15 02:16:00,43.0,29.3,30.01,ESE,113,0.0,0.0,58,0.00,,,0.00,WUHU216HW,2013-05-15 06:16:00,
2013-05-15 02:21:00,43.0,29.3,30.01,ESE,113,0.0,0.0,58,0.00,,,0.00,WUHU216HW,2013-05-15 06:21:00,
2013-05-15 02:26:00,43.0,28.8,30.01,ESE,113,0.0,0.0,57,0.00,,,0.00,WUHU216HW,2013-05-15 06:26:00,
2013-05-15 02:31:00,43.0,29.3,30.01,ESE,113,0.2,0.7,58,0.00,,,0.00,WUHU216HW,2013-05-15 06:31:00,
2013-05-15 02:36:00,43.2,29.5,30.01,ESE,113,0.9,0.9,58,0.00,,,0.00,WUHU216HW,2013-05-15 06:36:00,
2013-05-15 02:41:00,43.2,29.9,30.01,ESE,113,0.0,0.9,59,0.00,,,0.00,WUHU216HW,2013-05-15 06:41:00,
2013-05-15 02:46:00,43.4,30.1,30.01,ESE,113,0.0,0.7,59,0.00,,,0.00,WUHU216HW,2013-05-15 06:46:00,
2013-05-15 02:51:00,43.4,30.1,30.01,ESE,113,0.0,0.0,59,0.00,,,0.00,WUHU216HW,2013-05-15 06:51:00,
2013-05-15 02:56:00,43.4,30.1,30.00,ESE,113,0.0,0.0,59,0.00,,,0.00,WUHU216HW,2013-05-15 06:56:00,
2013-05-15 03:02:00,43.4,30.1,30.01,ESE,113,0.0,0.0,59,0.00,,,0.00,WUHU216HW,2013-05-15 07:02:00,
2013-05-15 03:07:00,43.5,30.2,30.00,ESE,113,0.0,0.0,59,0.00,,,0.00,WUHU216HW,2013-05-15 07:07:00,
2013-05-15 03:12:00,43.5,30.2,30.00,ESE,113,0.0,0.0,59,0.00,,,0.00,WUHU216HW,2013-05-15 07:12:00,
2013-05-15 03:17:00,43.7,30.4,30.00,ESE,113,0.0,0.0,59,0.00,,,0.00,WUHU216HW,2013-05-15 07:17:00,
2013-05-15 03:22:00,43.7,30.4,30.01,ESE,113,0.0,0.0,59,0.00,,,0.00,WUHU216HW,2013-05-15 07:22:00,
2013-05-15 03:27:00,43.9,30.6,30.00,ESE,113,0.0,0.0,59,0.00,,,0.00,WUHU216HW,2013-05-15 07:27:00,
2013-05-15 03:32:00,43.9,30.6,30.00,ESE,113,0.0,0.0,59,0.00,,,0.00,WUHU216HW,2013-05-15 07:32:00,
2013-05-15 03:37:00,44.1,31.2,30.00,ESE,113,0.0,0.0,60,0.00,,,0.00,WUHU216HW,2013-05-15 07:37:00,
2013-05-15 03:42:00,44.1,31.2,30.00,ESE,113,0.0,0.0,60,0.00,,,0.00,WUHU216HW,2013-05-15 07:42:00,
2013-05-15 03:47:00,44.3,30.9,30.00,ESE,113,0.0,0.0,59,0.00,,,0.00,WUHU216HW,2013-05-15 07:47:00,
2013-05-15 03:53:00,44.3,30.9,30.00,ESE,113,0.0,0.2,59,0.00,,,0.00,WUHU216HW,2013-05-15 07:53:00,
2013-05-15 03:58:00,44.4,31.0,30.00,North,0,0.0,0.2,59,0.00,,,0.00,WUHU216HW,2013-05-15 07:58:00,
2013-05-15 04:03:00,44.4,30.6,30.00,SE,135,1.1,1.1,58,0.00,,,0.00,WUHU216HW,2013-05-15 08:03:00,
2013-05-15 04:08:00,44.6,30.8,30.00,ESE,113,0.0,1.1,58,0.00,,,0.00,WUHU216HW,2013-05-15 08:08:00,
2013-05-15 04:13:00,44.8,30.5,30.00,NNW,338,0.0,1.1,57,0.00,,,0.00,WUHU216HW,2013-05-15 08:13:00,
2013-05-15 04:18:00,44.8,30.5,30.00,NW,315,0.4,0.4,57,0.00,,,0.00,WUHU216HW,2013-05-15 08:18:00,
2013-05-15 04:23:00,45.0,30.7,30.00,NW,315,0.0,0.4,57,0.00,,,0.00,WUHU216HW,2013-05-15 08:23:00,
2013-05-15 04:28:00,45.0,30.7,30.00,NW,315,0.0,0.2,57,0.00,,,0.00,WUHU216HW,2013-05-15 08:28:00,
2013-05-15 04:33:00,45.2,30.5,30.00,NW,315,0.0,0.0,56,0.00,,,0.00,WUHU216HW,2013-05-15 08:33:00,
2013-05-15 04:38:00,45.2,30.5,30.00,NW,315,0.0,0.0,56,0.00,,,0.00,WUHU216HW,2013-05-15 08:38:00,
2013-05-15 04:44:00,45.2,30.5,30.00,WSW,248,0.0,0.0,56,0.00,,,0.00,WUHU216HW,2013-05-15 08:44:00,
2013-05-15 04:49:00,45.2,30.5,30.00,WSW,248,0.0,0.0,56,0.00,,,0.00,WUHU216HW,2013-05-15 08:49:00,
2013-05-15 04:54:00,45.2,30.5,30.00,WNW,293,0.0,0.2,56,0.00,,,0.00,WUHU216HW,2013-05-15 08:54:00,
2013-05-15 04:59:00,45.3,30.6,29.99,SE,135,0.0,0.2,56,0.00,,,0.00,WUHU216HW,2013-05-15 08:59:00,
2013-05-15 05:04:00,45.3,30.6,29.99,West,270,0.7,0.9,56,0.00,,,0.00,WUHU216HW,2013-05-15 09:04:00,
2013-05-15 05:09:00,45.3,30.1,29.99,ESE,113,1.1,1.3,55,0.00,,,0.00,WUHU216HW,2013-05-15 09:09:00,
2013-05-15 05:14:00,45.3,30.1,29.98,ESE,113,0.4,1.3,55,0.00,,,0.00,WUHU216HW,2013-05-15 09:14:00,
2013-05-15 05:19:00,45.5,30.3,29.99,SE,135,0.9,1.1,55,0.00,,,0.00,WUHU216HW,2013-05-15 09:19:00,
2013-05-15 05:24:00,45.3,30.6,29.99,SE,135,0.7,1.1,56,0.00,,,0.00,WUHU216HW,2013-05-15 09:24:00,
2013-05-15 05:30:00,45.5,30.7,29.99,ESE,113,0.4,1.3,56,0.00,,,0.00,WUHU216HW,2013-05-15 09:30:00,
2013-05-15 05:35:00,45.5,30.7,29.99,SE,135,0.7,1.3,56,0.00,,,0.00,WUHU216HW,2013-05-15 09:35:00,
2013-05-15 05:40:00,45.5,30.7,29.99,SE,135,1.1,1.1,56,0.00,,,0.00,WUHU216HW,2013-05-15 09:40:00,
2013-05-15 05:45:00,45.7,30.9,29.99,ESE,113,0.4,1.1,56,0.00,,,0.00,WUHU216HW,2013-05-15 09:45:00,
2013-05-15 05:50:00,45.7,30.9,29.99,SE,135,0.0,1.1,56,0.00,,,0.00,WUHU216HW,2013-05-15 09:50:00,
2013-05-15 05:55:00,45.7,30.9,29.99,SSE,158,0.0,1.1,56,0.00,,,0.00,WUHU216HW,2013-05-15 09:55:00,
2013-05-15 06:00:00,45.7,30.9,29.99,SE,135,0.0,0.4,56,0.00,,,0.00,WUHU216HW,2013-05-15 10:00:00,
2013-05-15 06:05:00,45.7,30.9,29.99,ESE,113,0.0,0.2,56,0.00,,,0.00,WUHU216HW,2013-05-15 10:05:00,
2013-05-15 06:10:00,45.9,31.1,29.99,ESE,113,0.0,0.0,56,0.00,,,0.00,WUHU216HW,2013-05-15 10:10:00,
2013-05-15 06:15:00,45.9,31.6,29.99,ESE,113,0.0,0.0,57,0.00,,,0.00,WUHU216HW,2013-05-15 10:15:00,
2013-05-15 06:21:00,45.9,31.6,29.99,ESE,113,0.0,0.2,57,0.00,,,0.00,WUHU216HW,2013-05-15 10:21:00,
2013-05-15 06:26:00,45.9,31.6,29.98,NE,45,0.0,0.2,57,0.00,,,0.00,WUHU216HW,2013-05-15 10:26:00,
2013-05-15 06:31:00,46.1,31.8,29.98,ESE,113,0.0,0.2,57,0.00,,,0.00,WUHU216HW,2013-05-15 10:31:00,
2013-05-15 06:36:00,46.2,32.3,29.98,SE,135,0.4,1.8,58,0.00,,,0.00,WUHU216HW,2013-05-15 10:36:00,
2013-05-15 06:41:00,46.2,32.3,29.98,SE,135,1.1,2.5,58,0.00,,,0.00,WUHU216HW,2013-05-15 10:41:00,
2013-05-15 06:46:00,46.2,32.3,29.98,SE,135,1.1,2.5,58,0.00,,,0.00,WUHU216HW,2013-05-15 10:46:00,
2013-05-15 06:51:00,46.4,32.5,29.98,SE,135,0.9,1.3,58,0.00,,,0.00,WUHU216HW,2013-05-15 10:51:00,
2013-05-15 06:56:00,46.4,32.5,29.99,SE,135,0.2,1.1,58,0.00,,,0.00,WUHU216HW,2013-05-15 10:56:00,
2013-05-15 07:01:00,46.6,32.7,29.99,SE,135,0.4,1.8,58,0.00,,,0.00,WUHU216HW,2013-05-15 11:01:00,
2013-05-15 07:06:00,46.6,32.7,29.98,SE,135,0.9,1.8,58,0.00,,,0.00,WUHU216HW,2013-05-15 11:06:00,
2013-05-15 07:11:00,46.8,32.9,29.97,SE,135,1.8,2.0,58,0.00,,,0.00,WUHU216HW,2013-05-15 11:11:00,
2013-05-15 07:17:00,46.8,32.9,29.97,SE,135,0.2,2.0,58,0.00,,,0.00,WUHU216HW,2013-05-15 11:17:00,
2013-05-15 07:22:00,47.0,33.0,29.97,SSE,158,0.9,2.5,58,0.00,,,0.00,WUHU216HW,2013-05-15 11:22:00,
2013-05-15 07:27:00,47.3,33.3,29.97,SE,135,1.6,2.5,58,0.00,,,0.00,WUHU216HW,2013-05-15 11:27:00,
2013-05-15 07:33:00,47.7,33.7,29.97,SE,135,1.3,2.0,58,0.00,,,0.00,WUHU216HW,2013-05-15 11:33:00,
2013-05-15 07:38:00,47.7,33.7,29.97,SSE,158,1.6,2.0,58,0.00,,,0.00,WUHU216HW,2013-05-15 11:38:00,
2013-05-15 07:43:00,47.9,33.9,29.97,East,90,0.7,1.8,58,0.00,,,0.00,WUHU216HW,2013-05-15 11:43:00,
2013-05-15 07:48:00,47.9,34.3,29.97,ESE,113,1.6,1.6,59,0.00,,,0.00,WUHU216HW,2013-05-15 11:48:00,
2013-05-15 07:54:00,48.0,34.9,29.97,North,0,0.2,1.6,60,0.00,,,0.00,WUHU216HW,2013-05-15 11:54:00,
2013-05-15 07:59:00,48.2,35.0,29.97,SW,225,0.4,1.1,60,0.00,,,0.00,WUHU216HW,2013-05-15 11:59:00,
2013-05-15 08:04:00,48.4,35.7,29.97,ESE,113,0.9,2.2,61,0.00,,,0.00,WUHU216HW,2013-05-15 12:04:00,
2013-05-15 08:09:00,48.8,36.5,29.97,ESE,113,1.3,2.2,62,0.00,,,0.00,WUHU216HW,2013-05-15 12:09:00,
2013-05-15 08:14:00,48.9,36.5,29.97,SE,135,1.8,2.2,62,0.00,,,0.00,WUHU216HW,2013-05-15 12:14:00,
2013-05-15 08:19:00,49.3,36.9,29.96,SE,135,1.8,2.2,62,0.00,,,0.00,WUHU216HW,2013-05-15 12:19:00,
2013-05-15 08:25:00,49.5,37.1,29.97,SSW,203,0.4,2.5,62,0.00,,,0.00,WUHU216HW,2013-05-15 12:25:00,
2013-05-15 08:30:00,49.8,37.8,29.96,SE,135,2.2,2.5,63,0.00,,,0.00,WUHU216HW,2013-05-15 12:30:00,
2013-05-15 08:35:00,50.0,38.0,29.96,SSE,158,2.5,2.7,63,0.00,,,0.00,WUHU216HW,2013-05-15 12:35:00,
2013-05-15 08:40:00,50.4,38.4,29.96,North,0,0.9,3.4,63,0.00,,,0.00,WUHU216HW,2013-05-15 12:40:00,
2013-05-15 08:45:00,50.6,38.6,29.95,SE,135,0.4,3.4,63,0.00,,,0.00,WUHU216HW,2013-05-15 12:45:00,
2013-05-15 08:51:00,50.7,38.7,29.95,ESE,113,1.8,1.8,63,0.00,,,0.00,WUHU216HW,2013-05-15 12:51:00,
2013-05-15 08:56:00,51.1,38.6,29.95,SE,135,1.1,2.5,62,0.00,,,0.00,WUHU216HW,2013-05-15 12:56:00,
2013-05-15 09:01:00,51.5,39.0,29.94,SE,135,1.6,2.5,62,0.00,,,0.00,WUHU216HW,2013-05-15 13:01:00,
2013-05-15 09:06:00,51.8,39.3,29.94,SE,135,0.4,2.0,62,0.00,,,0.00,WUHU216HW,2013-05-15 13:06:00,
2013-05-15 09:11:00,52.2,39.7,29.94,SW,225,0.2,3.4,62,0.00,,,0.00,WUHU216HW,2013-05-15 13:11:00,
2013-05-15 09:17:00,52.5,39.5,29.94,SSE,158,0.2,3.4,61,0.00,,,0.00,WUHU216HW,2013-05-15 13:17:00,
2013-05-15 09:22:00,53.1,39.7,29.94,SSE,158,1.3,3.1,60,0.00,,,0.00,WUHU216HW,2013-05-15 13:22:00,
2013-05-15 09:27:00,53.6,39.7,29.93,NW,315,0.4,3.4,59,0.00,,,0.00,WUHU216HW,2013-05-15 13:27:00,
2013-05-15 09:32:00,53.8,39.9,29.92,ESE,113,2.9,3.4,59,0.00,,,0.00,WUHU216HW,2013-05-15 13:32:00,
2013-05-15 09:37:00,54.2,39.8,29.92,SE,135,3.1,4.9,58,0.00,,,0.00,WUHU216HW,2013-05-15 13:37:00,
2013-05-15 09:43:00,54.3,39.9,29.92,SSE,158,2.7,4.9,58,0.00,,,0.00,WUHU216HW,2013-05-15 13:43:00,
2013-05-15 09:48:00,54.5,39.7,29.92,SE,135,1.3,4.0,57,0.00,,,0.00,WUHU216HW,2013-05-15 13:48:00,
2013-05-15 09:53:00,54.7,39.8,29.92,SSE,158,2.5,3.4,57,0.00,,,0.00,WUHU216HW,2013-05-15 13:53:00,
2013-05-15 09:58:00,54.9,40.0,29.93,WNW,293,2.5,2.9,57,0.00,,,0.00,WUHU216HW,2013-05-15 13:58:00,
2013-05-15 10:03:00,54.9,40.0,29.94,SE,135,2.2,2.7,57,0.00,,,0.00,WUHU216HW,2013-05-15 14:03:00,
2013-05-15 10:08:00,54.9,40.0,29.93,East,90,0.4,2.5,57,0.00,,,0.00,WUHU216HW,2013-05-15 14:08:00,
2013-05-15 10:13:00,54.9,40.0,29.93,ENE,68,0.4,2.2,57,0.00,,,0.00,WUHU216HW,2013-05-15 14:13:00,
2013-05-15 10:19:00,54.9,40.0,29.92,NNE,23,0.2,1.1,57,0.00,,,0.00,WUHU216HW,2013-05-15 14:19:00,
2013-05-15 10:24:00,54.7,39.8,29.93,SE,135,1.1,2.5,57,0.00,,,0.00,WUHU216HW,2013-05-15 14:24:00,
2013-05-15 10:29:00,54.7,39.8,29.93,East,90,1.1,2.5,57,0.00,,,0.00,WUHU216HW,2013-05-15 14:29:00,
2013-05-15 10:34:00,54.5,39.7,29.93,ESE,113,0.7,1.6,57,0.00,,,0.00,WUHU216HW,2013-05-15 14:34:00,
2013-05-15 10:39:00,54.3,39.9,29.92,ESE,113,0.7,1.6,58,0.00,,,0.00,WUHU216HW,2013-05-15 14:39:00,
2013-05-15 10:44:00,54.3,39.9,29.93,ESE,113,1.1,1.3,58,0.00,,,0.00,WUHU216HW,2013-05-15 14:44:00,
2013-05-15 10:49:00,54.3,39.9,29.93,ESE,113,1.1,2.9,58,0.00,,,0.00,WUHU216HW,2013-05-15 14:49:00,
2013-05-15 10:54:00,54.3,39.9,29.93,SSE,158,0.7,2.9,58,0.00,,,0.00,WUHU216HW,2013-05-15 14:54:00,
2013-05-15 10:59:00,54.5,40.6,29.94,ESE,113,0.4,2.5,59,0.00,,,0.00,WUHU216HW,2013-05-15 14:59:00,
2013-05-15 11:04:00,54.7,40.7,29.94,ESE,113,0.2,2.9,59,0.00,,,0.00,WUHU216HW,2013-05-15 15:04:00,
2013-05-15 11:09:00,54.7,40.7,29.93,SE,135,2.0,2.9,59,0.00,,,0.00,WUHU216HW,2013-05-15 15:09:00,
2013-05-15 11:14:00,54.9,40.9,29.93,SE,135,0.7,2.9,59,0.00,,,0.00,WUHU216HW,2013-05-15 15:14:00,
2013-05-15 11:20:00,55.1,41.1,29.92,SSE,158,0.0,2.0,59,0.00,,,0.00,WUHU216HW,2013-05-15 15:20:00,
2013-05-15 11:25:00,55.1,41.1,29.91,SE,135,1.3,1.8,59,0.00,,,0.00,WUHU216HW,2013-05-15 15:25:00,
2013-05-15 11:30:00,55.1,41.6,29.89,SSE,158,2.9,3.4,60,0.00,,,0.00,WUHU216HW,2013-05-15 15:30:00,
2013-05-15 11:35:00,55.2,42.1,29.90,ESE,113,2.7,3.4,61,0.00,,,0.00,WUHU216HW,2013-05-15 15:35:00,
2013-05-15 11:40:00,55.4,42.7,29.90,SE,135,1.1,2.9,62,0.00,,,0.00,WUHU216HW,2013-05-15 15:40:00,
2013-05-15 11:45:00,55.6,42.9,29.89,ESE,113,1.1,2.7,62,0.00,,,0.00,WUHU216HW,2013-05-15 15:45:00,
2013-05-15 11:50:00,55.8,43.1,29.89,SSE,158,0.4,2.5,62,0.00,,,0.00,WUHU216HW,2013-05-15 15:50:00,
2013-05-15 11:55:00,55.8,43.1,29.90,SSE,158,0.2,2.2,62,0.00,,,0.00,WUHU216HW,2013-05-15 15:55:00,
2013-05-15 12:00:00,55.8,43.1,29.89,ESE,113,0.9,2.2,62,0.00,,,0.00,WUHU216HW,2013-05-15 16:00:00,
2013-05-15 12:05:00,55.8,43.1,29.87,SSE,158,2.5,2.5,62,0.00,,,0.00,WUHU216HW,2013-05-15 16:05:00,
2013-05-15 12:11:00,56.0,43.3,29.85,SE,135,1.1,4.0,62,0.00,,,0.00,WUHU216HW,2013-05-15 16:11:00,
2013-05-15 12:16:00,56.0,43.3,29.86,SE,135,2.2,4.0,62,0.00,,,0.00,WUHU216HW,2013-05-15 16:16:00,
2013-05-15 12:21:00,56.5,44.2,29.86,ESE,113,1.1,3.8,63,0.00,,,0.00,WUHU216HW,2013-05-15 16:21:00,
2013-05-15 12:26:00,57.2,44.8,29.85,SSE,158,4.9,4.9,63,0.00,,,0.00,WUHU216HW,2013-05-15 16:26:00,
2013-05-15 12:31:00,57.8,45.0,29.84,SE,135,2.5,4.9,62,0.00,,,0.00,WUHU216HW,2013-05-15 16:31:00,
2013-05-15 12:36:00,58.1,45.3,29.84,SE,135,1.1,3.6,62,0.00,,,0.00,WUHU216HW,2013-05-15 16:36:00,
2013-05-15 12:42:00,58.3,45.5,29.85,SSE,158,2.2,6.5,62,0.00,,,0.00,WUHU216HW,2013-05-15 16:42:00,
2013-05-15 12:47:00,58.5,45.2,29.85,South,180,1.8,6.5,61,0.00,,,0.00,WUHU216HW,2013-05-15 16:47:00,
2013-05-15 12:52:00,59.2,45.9,29.86,SE,135,2.0,2.2,61,0.00,,,0.00,WUHU216HW,2013-05-15 16:52:00,
2013-05-15 12:57:00,59.4,45.6,29.86,SE,135,2.5,4.0,60,0.00,,,0.00,WUHU216HW,2013-05-15 16:57:00,
2013-05-15 13:02:00,59.9,46.1,29.86,West,270,1.8,4.0,60,0.00,,,0.00,WUHU216HW,2013-05-15 17:02:00,
2013-05-15 13:07:00,60.3,46.5,29.86,West,270,0.9,2.5,60,0.00,,,0.00,WUHU216HW,2013-05-15 17:07:00,
2013-05-15 13:12:00,60.8,47.0,29.85,ESE,113,2.2,2.2,60,0.00,,,0.00,WUHU216HW,2013-05-15 17:12:00,
2013-05-15 13:18:00,61.0,46.2,29.85,ESE,113,2.5,2.5,58,0.00,,,0.00,WUHU216HW,2013-05-15 17:18:00,
2013-05-15 13:23:00,61.2,46.4,29.86,NNE,23,3.1,3.1,58,0.00,,,0.00,WUHU216HW,2013-05-15 17:23:00,
2013-05-15 13:28:00,61.4,46.1,29.85,NE,45,2.9,5.4,57,0.00,,,0.00,WUHU216HW,2013-05-15 17:28:00,
2013-05-15 13:33:00,61.5,46.7,29.87,SSE,158,2.5,5.4,58,0.00,,,0.00,WUHU216HW,2013-05-15 17:33:00,
2013-05-15 13:38:00,61.5,46.2,29.87,SW,225,2.2,3.4,57,0.00,,,0.00,WUHU216HW,2013-05-15 17:38:00,
2013-05-15 13:43:00,61.4,46.1,29.85,West,270,1.8,3.4,57,0.00,,,0.00,WUHU216HW,2013-05-15 17:43:00,
2013-05-15 13:48:00,61.4,46.6,29.85,West,270,0.7,2.9,58,0.00,,,0.00,WUHU216HW,2013-05-15 17:48:00,
2013-05-15 13:53:00,61.4,48.4,29.85,ENE,68,1.1,1.8,62,0.00,,,0.00,WUHU216HW,2013-05-15 17:53:00,
2013-05-15 13:59:00,61.2,48.2,29.85,West,270,1.3,1.3,62,0.00,,,0.00,WUHU216HW,2013-05-15 17:59:00,
2013-05-15 14:04:00,60.8,48.3,29.85,NE,45,0.2,1.3,63,0.00,,,0.00,WUHU216HW,2013-05-15 18:04:00,
2013-05-15 14:09:00,60.6,48.5,29.84,SSE,158,0.4,2.0,64,0.00,,,0.00,WUHU216HW,2013-05-15 18:09:00,
2013-05-15 14:14:00,60.6,48.5,29.83,ESE,113,0.4,2.0,64,0.00,,,0.00,WUHU216HW,2013-05-15 18:14:00,
2013-05-15 14:19:00,60.6,48.9,29.82,SE,135,0.4,0.4,65,0.00,,,0.00,WUHU216HW,2013-05-15 18:19:00,
2013-05-15 14:24:00,60.6,48.9,29.81,SE,135,1.1,1.1,65,0.00,,,0.00,WUHU216HW,2013-05-15 18:24:00,
2013-05-15 14:29:00,61.0,49.3,29.81,SE,135,1.1,1.1,65,0.00,,,0.00,WUHU216HW,2013-05-15 18:29:00,
2013-05-15 14:35:00,61.4,49.3,29.81,ESE,113,0.9,2.2,64,0.00,,,0.00,WUHU216HW,2013-05-15 18:35:00,
2013-05-15 14:40:00,61.7,50.0,29.79,SE,135,1.1,3.4,65,0.00,,,0.00,WUHU216HW,2013-05-15 18:40:00,
2013-05-15 14:45:00,62.3,50.5,29.78,SE,135,0.9,3.4,65,0.00,,,0.00,WUHU216HW,2013-05-15 18:45:00,
2013-05-15 14:50:00,62.4,50.2,29.77,NE,45,4.0,4.0,64,0.00,,,0.00,WUHU216HW,2013-05-15 18:50:00,
2013-05-15 14:55:00,63.0,50.8,29.76,SE,135,2.5,4.0,64,0.00,,,0.00,WUHU216HW,2013-05-15 18:55:00,
2013-05-15 15:00:00,63.2,51.0,29.76,SE,135,4.3,4.3,64,0.00,,,0.00,WUHU216HW,2013-05-15 19:00:00,
2013-05-15 15:05:00,63.7,50.1,29.76,SE,135,4.9,4.9,61,0.00,,,0.00,WUHU216HW,2013-05-15 19:05:00,
2013-05-15 15:10:00,63.5,50.0,29.76,WNW,293,2.2,4.9,61,0.00,,,0.00,WUHU216HW,2013-05-15 19:10:00,
2013-05-15 15:16:00,63.3,49.8,29.76,SE,135,3.4,4.9,61,0.00,,,0.00,WUHU216HW,2013-05-15 19:16:00,
2013-05-15 15:21:00,63.3,49.8,29.75,South,180,1.8,3.4,61,0.00,,,0.00,WUHU216HW,2013-05-15 19:21:00,
2013-05-15 15:26:00,63.5,50.0,29.74,West,270,0.4,3.4,61,0.00,,,0.00,WUHU216HW,2013-05-15 19:26:00,
2013-05-15 15:31:00,63.9,49.9,29.74,North,0,2.2,2.2,60,0.00,,,0.00,WUHU216HW,2013-05-15 19:31:00,
2013-05-15 15:36:00,64.2,50.6,29.74,North,0,0.4,4.0,61,0.00,,,0.00,WUHU216HW,2013-05-15 19:36:00,
2013-05-15 15:41:00,64.6,51.0,29.73,ESE,113,1.8,4.0,61,0.00,,,0.00,WUHU216HW,2013-05-15 19:41:00,
2013-05-15 15:46:00,65.0,50.9,29.73,SSE,158,2.9,2.9,60,0.00,,,0.00,WUHU216HW,2013-05-15 19:46:00,
2013-05-15 15:51:00,65.7,51.6,29.72,South,180,1.8,2.9,60,0.00,,,0.00,WUHU216HW,2013-05-15 19:51:00,
2013-05-15 15:56:00,65.9,51.8,29.72,SSE,158,1.1,2.9,60,0.00,,,0.00,WUHU216HW,2013-05-15 19:56:00,
2013-05-15 16:01:00,66.2,52.1,29.71,SSE,158,2.5,2.5,60,0.00,,,0.00,WUHU216HW,2013-05-15 20:01:00,
2013-05-15 16:06:00,66.6,52.0,29.71,SSE,158,2.0,2.5,59,0.00,,,0.00,WUHU216HW,2013-05-15 20:06:00,
2013-05-15 16:11:00,67.1,52.0,29.71,SSE,158,1.1,2.5,58,0.00,,,0.00,WUHU216HW,2013-05-15 20:11:00,
2013-05-15 16:16:00,67.3,52.2,29.71,SE,135,1.1,1.8,58,0.00,,,0.00,WUHU216HW,2013-05-15 20:16:00,
2013-05-15 16:21:00,67.7,52.5,29.71,East,90,4.7,4.7,58,0.00,,,0.00,WUHU216HW,2013-05-15 20:21:00,
2013-05-15 16:27:00,67.7,52.1,29.71,SSW,203,0.4,4.7,57,0.00,,,0.00,WUHU216HW,2013-05-15 20:27:00,
2013-05-15 16:32:00,68.2,52.5,29.71,SW,225,0.9,4.7,57,0.00,,,0.00,WUHU216HW,2013-05-15 20:32:00,
2013-05-15 16:37:00,68.2,52.5,29.72,East,90,5.1,8.3,57,0.00,,,0.00,WUHU216HW,2013-05-15 20:37:00,
2013-05-15 16:42:00,68.4,52.7,29.72,SSE,158,6.3,8.3,57,0.00,,,0.00,WUHU216HW,2013-05-15 20:42:00,
2013-05-15 16:47:00,68.2,52.0,29.72,SE,135,1.8,6.3,56,0.00,,,0.00,WUHU216HW,2013-05-15 20:47:00,
2013-05-15 16:52:00,68.4,52.7,29.72,WSW,248,2.5,4.5,57,0.00,,,0.00,WUHU216HW,2013-05-15 20:52:00,
2013-05-15 16:58:00,68.6,52.9,29.72,West,270,2.5,2.7,57,0.00,,,0.00,WUHU216HW,2013-05-15 20:58:00,
2013-05-15 17:03:00,68.7,53.5,29.72,South,180,1.3,3.8,58,0.00,,,0.00,WUHU216HW,2013-05-15 21:03:00,
2013-05-15 17:08:00,68.9,53.2,29.71,ESE,113,2.2,4.5,57,0.00,,,0.00,WUHU216HW,2013-05-15 21:08:00,
2013-05-15 17:13:00,68.9,53.2,29.71,SE,135,1.1,4.5,57,0.00,,,0.00,WUHU216HW,2013-05-15 21:13:00,
2013-05-15 17:18:00,69.5,54.2,29.70,WNW,293,2.5,3.4,58,0.00,,,0.00,WUHU216HW,2013-05-15 21:18:00,
2013-05-15 17:23:00,69.6,53.8,29.71,SW,225,1.8,3.1,57,0.00,,,0.00,WUHU216HW,2013-05-15 21:23:00,
2013-05-15 17:28:00,69.6,53.8,29.71,NE,45,1.6,3.8,57,0.00,,,0.00,WUHU216HW,2013-05-15 21:28:00,
2013-05-15 17:33:00,69.6,53.3,29.71,West,270,2.7,6.5,56,0.00,,,0.00,WUHU216HW,2013-05-15 21:33:00,
2013-05-15 17:38:00,69.5,53.7,29.71,South,180,2.2,6.5,57,0.00,,,0.00,WUHU216HW,2013-05-15 21:38:00,
2013-05-15 17:43:00,69.8,54.0,29.70,SW,225,2.2,4.9,57,0.00,,,0.00,WUHU216HW,2013-05-15 21:43:00,
2013-05-15 17:48:00,70.4,54.6,29.70,SW,225,2.9,6.3,57,0.00,,,0.00,WUHU216HW,2013-05-15 21:48:00,
2013-05-15 17:53:00,70.4,54.1,29.70,West,270,2.0,6.3,56,0.00,,,0.00,WUHU216HW,2013-05-15 21:53:00,
2013-05-15 17:58:00,70.4,54.1,29.70,SSE,158,3.4,4.0,56,0.00,,,0.00,WUHU216HW,2013-05-15 21:58:00,
2013-05-15 18:04:00,70.0,54.2,29.70,SW,225,2.2,3.6,57,0.00,,,0.00,WUHU216HW,2013-05-15 22:04:00,
2013-05-15 18:09:00,70.0,54.2,29.69,SE,135,1.6,6.3,57,0.00,,,0.00,WUHU216HW,2013-05-15 22:09:00,
2013-05-15 18:14:00,70.2,54.4,29.69,WSW,248,1.3,6.3,57,0.00,,,0.00,WUHU216HW,2013-05-15 22:14:00,
2013-05-15 18:19:00,70.7,54.9,29.69,SSW,203,2.5,3.1,57,0.00,,,0.00,WUHU216HW,2013-05-15 22:19:00,
2013-05-15 18:24:00,71.3,54.9,29.69,SSW,203,5.8,5.8,56,0.00,,,0.00,WUHU216HW,2013-05-15 22:24:00,
2013-05-15 18:30:00,71.4,55.0,29.68,ENE,68,1.8,6.7,56,0.00,,,0.00,WUHU216HW,2013-05-15 22:30:00,
2013-05-15 18:35:00,71.6,54.7,29.69,SSE,158,0.4,6.7,55,0.00,,,0.00,WUHU216HW,2013-05-15 22:35:00,
2013-05-15 18:40:00,71.6,54.7,29.69,SE,135,1.8,4.5,55,0.00,,,0.00,WUHU216HW,2013-05-15 22:40:00,
2013-05-15 18:45:00,71.3,54.9,29.69,West,270,4.5,4.5,56,0.00,,,0.00,WUHU216HW,2013-05-15 22:45:00,
2013-05-15 18:50:00,70.5,54.2,29.69,ESE,113,1.8,4.5,56,0.00,,,0.00,WUHU216HW,2013-05-15 22:50:00,
2013-05-15 18:55:00,70.4,54.6,29.68,East,90,1.1,4.5,57,0.00,,,0.00,WUHU216HW,2013-05-15 22:55:00,
2013-05-15 19:00:00,70.2,54.4,29.68,SE,135,0.7,1.8,57,0.00,,,0.00,WUHU216HW,2013-05-15 23:00:00,
2013-05-15 19:05:00,70.4,54.6,29.68,ESE,113,0.7,1.3,57,0.00,,,0.00,WUHU216HW,2013-05-15 23:05:00,
2013-05-15 19:10:00,70.5,54.7,29.68,SE,135,2.9,4.0,57,0.00,,,0.00,WUHU216HW,2013-05-15 23:10:00,
2013-05-15 19:15:00,69.8,54.0,29.68,ENE,68,2.0,4.0,57,0.00,,,0.00,WUHU216HW,2013-05-15 23:15:00,
2013-05-15 19:21:00,69.3,54.0,29.68,ENE,68,1.8,4.0,58,0.00,,,0.00,WUHU216HW,2013-05-15 23:21:00,
2013-05-15 19:26:00,68.7,54.0,29.68,WSW,248,1.3,2.0,59,0.00,,,0.00,WUHU216HW,2013-05-15 23:26:00,
2013-05-15 19:31:00,68.2,53.5,29.68,ENE,68,1.6,1.8,59,0.00,,,0.00,WUHU216HW,2013-05-15 23:31:00,
2013-05-15 19:36:00,68.2,53.5,29.68,South,180,2.0,2.0,59,0.00,,,0.00,WUHU216HW,2013-05-15 23:36:00,
2013-05-15 19:41:00,67.5,53.7,29.68,WNW,293,4.0,4.0,61,0.00,,,0.00,WUHU216HW,2013-05-15 23:41:00,
2013-05-15 19:46:00,67.1,53.4,29.68,SSW,203,0.2,4.0,61,0.00,,,0.00,WUHU216HW,2013-05-15 23:46:00,
2013-05-15 19:51:00,66.9,53.6,29.69,WSW,248,1.3,4.0,62,0.00,,,0.00,WUHU216HW,2013-05-15 23:51:00,
2013-05-15 19:56:00,66.8,53.5,29.69,SSW,203,2.5,2.5,62,0.00,,,0.00,WUHU216HW,2013-05-15 23:56:00,
2013-05-15 20:02:00,66.6,53.3,29.69,SSE,158,1.6,2.5,62,0.00,,,0.00,WUHU216HW,2013-05-16 00:02:00,
2013-05-15 20:07:00,66.4,53.2,29.69,SSW,203,1.1,2.5,62,0.00,,,0.00,WUHU216HW,2013-05-16 00:07:00,
2013-05-15 20:12:00,66.0,53.2,29.69,SSW,203,1.8,1.8,63,0.00,,,0.00,WUHU216HW,2013-05-16 00:12:00,
2013-05-15 20:17:00,65.5,53.2,29.69,SW,225,3.6,3.6,64,0.00,,,0.00,WUHU216HW,2013-05-16 00:17:00,
2013-05-15 20:22:00,65.1,53.2,29.69,SE,135,0.9,3.6,65,0.00,,,0.00,WUHU216HW,2013-05-16 00:22:00,
2013-05-15 20:28:00,65.0,53.1,29.69,WSW,248,1.1,3.6,65,0.00,,,0.00,WUHU216HW,2013-05-16 00:28:00,
2013-05-15 20:33:00,64.8,52.9,29.69,WSW,248,0.4,3.8,65,0.00,,,0.00,WUHU216HW,2013-05-16 00:33:00,
2013-05-15 20:38:00,64.6,52.7,29.69,WSW,248,1.1,4.3,65,0.00,,,0.00,WUHU216HW,2013-05-16 00:38:00,
2013-05-15 20:43:00,64.6,52.7,29.70,SE,135,0.2,4.3,65,0.00,,,0.00,WUHU216HW,2013-05-16 00:43:00,
2013-05-15 20:48:00,64.4,52.5,29.70,SSE,158,1.6,1.6,65,0.00,,,0.00,WUHU216HW,2013-05-16 00:48:00,
2013-05-15 20:53:00,64.1,52.7,29.70,SE,135,1.8,2.5,66,0.00,,,0.00,WUHU216HW,2013-05-16 00:53:00,
2013-05-15 20:58:00,63.9,52.5,29.69,SE,135,1.1,2.5,66,0.00,,,0.00,WUHU216HW,2013-05-16 00:58:00,
2013-05-15 21:03:00,63.9,52.5,29.70,SW,225,6.3,6.3,66,0.00,,,0.00,WUHU216HW,2013-05-16 01:03:00,
2013-05-15 21:08:00,63.7,52.7,29.70,West,270,1.1,6.3,67,0.00,,,0.00,WUHU216HW,2013-05-16 01:08:00,
2013-05-15 21:13:00,63.5,52.5,29.70,SSE,158,0.2,4.9,67,0.00,,,0.00,WUHU216HW,2013-05-16 01:13:00,
2013-05-15 21:18:00,63.3,52.3,29.70,WSW,248,0.4,4.9,67,0.00,,,0.00,WUHU216HW,2013-05-16 01:18:00,
2013-05-15 21:24:00,63.3,52.3,29.70,West,270,1.1,3.6,67,0.00,,,0.00,WUHU216HW,2013-05-16 01:24:00,
2013-05-15 21:29:00,63.2,52.6,29.70,West,270,2.9,5.1,68,0.00,,,0.00,WUHU216HW,2013-05-16 01:29:00,
2013-05-15 21:34:00,63.2,52.6,29.70,SW,225,5.6,8.3,68,0.00,,,0.00,WUHU216HW,2013-05-16 01:34:00,
2013-05-15 21:39:00,63.2,53.0,29.70,WSW,248,0.7,8.3,69,0.00,,,0.00,WUHU216HW,2013-05-16 01:39:00,
2013-05-15 21:45:00,63.2,53.0,29.73,WSW,248,4.0,4.9,69,0.00,,,0.00,WUHU216HW,2013-05-16 01:45:00,
2013-05-15 21:50:00,63.2,53.0,29.74,SW,225,1.8,4.0,69,0.00,,,0.00,WUHU216HW,2013-05-16 01:50:00,
2013-05-15 21:55:00,63.2,53.0,29.74,NW,315,2.5,4.0,69,0.00,,,0.00,WUHU216HW,2013-05-16 01:55:00,
2013-05-15 22:00:00,63.0,52.8,29.74,SW,225,2.5,2.5,69,0.00,,,0.00,WUHU216HW,2013-05-16 02:00:00,
2013-05-15 22:05:00,63.2,53.0,29.73,West,270,2.5,2.5,69,0.00,,,0.00,WUHU216HW,2013-05-16 02:05:00,
2013-05-15 22:10:00,63.0,53.2,29.73,WSW,248,1.1,2.5,70,0.00,,,0.00,WUHU216HW,2013-05-16 02:10:00,
2013-05-15 22:15:00,62.8,53.0,29.74,NNW,338,0.4,2.9,70,0.00,,,0.00,WUHU216HW,2013-05-16 02:15:00,
2013-05-15 22:21:00,62.8,53.0,29.73,SW,225,3.6,3.6,70,0.00,,,0.00,WUHU216HW,2013-05-16 02:21:00,
2013-05-15 22:26:00,62.6,52.8,29.73,West,270,0.4,3.6,70,0.00,,,0.00,WUHU216HW,2013-05-16 02:26:00,
2013-05-15 22:31:00,62.4,52.6,29.73,WSW,248,0.0,3.6,70,0.00,,,0.00,WUHU216HW,2013-05-16 02:31:00,
2013-05-15 22:36:00,62.4,52.6,29.73,SE,135,0.4,2.9,70,0.00,,,0.00,WUHU216HW,2013-05-16 02:36:00,
2013-05-15 22:41:00,62.3,52.9,29.73,SW,225,0.0,1.1,71,0.00,,,0.00,WUHU216HW,2013-05-16 02:41:00,
2013-05-15 22:46:00,62.1,52.7,29.73,WSW,248,0.0,0.9,71,0.00,,,0.00,WUHU216HW,2013-05-16 02:46:00,
2013-05-15 22:51:00,61.9,52.5,29.73,WSW,248,0.0,0.0,71,0.00,,,0.00,WUHU216HW,2013-05-16 02:51:00,
2013-05-15 22:56:00,61.7,52.3,29.73,East,90,0.2,0.7,71,0.00,,,0.00,WUHU216HW,2013-05-16 02:56:00,
2013-05-15 23:01:00,61.7,52.3,29.73,WNW,293,0.9,0.9,71,0.00,,,0.00,WUHU216HW,2013-05-16 03:01:00,
2013-05-15 23:06:00,61.5,52.1,29.73,East,90,0.0,0.9,71,0.00,,,0.00,WUHU216HW,2013-05-16 03:06:00,
2013-05-15 23:11:00,61.4,52.4,29.73,ESE,113,0.2,0.4,72,0.00,,,0.00,WUHU216HW,2013-05-16 03:11:00,
2013-05-15 23:16:00,61.2,52.2,29.73,ESE,113,0.0,0.2,72,0.00,,,0.00,WUHU216HW,2013-05-16 03:16:00,
2013-05-15 23:21:00,61.0,52.0,29.74,SE,135,1.1,1.3,72,0.00,,,0.00,WUHU216HW,2013-05-16 03:21:00,
2013-05-15 23:27:00,60.8,52.2,29.74,SE,135,1.1,1.6,73,0.00,,,0.00,WUHU216HW,2013-05-16 03:27:00,
2013-05-15 23:32:00,60.6,51.7,29.74,SE,135,1.1,1.8,72,0.00,,,0.00,WUHU216HW,2013-05-16 03:32:00,
2013-05-15 23:37:00,60.3,51.4,29.74,SE,135,1.1,1.8,72,0.00,,,0.00,WUHU216HW,2013-05-16 03:37:00,
2013-05-15 23:42:00,60.3,51.7,29.74,SE,135,0.0,1.3,73,0.00,,,0.00,WUHU216HW,2013-05-16 03:42:00,
2013-05-15 23:47:00,60.1,51.5,29.74,South,180,0.0,0.9,73,0.00,,,0.00,WUHU216HW,2013-05-16 03:47:00,
2013-05-15 23:52:00,59.9,51.3,29.74,WSW,248,0.4,0.4,73,0.00,,,0.00,WUHU216HW,2013-05-16 03:52:00,
2013-05-15 23:57:00,59.9,51.3,29.74,WSW,248,0.0,0.4,73,0.00,,,0.00,WUHU216HW,2013-05-16 03:57:00,